This is the latest recevied weather packets stored in our database for station/object N0FDH. If no packets are shown the sender has not sent any weather packets the latest 10 day(s).
| Time | Temp. | Humidity | Pressure | Rain* | Wind** | Luminosity | Snow |
|---|---|---|---|---|---|---|---|
| 1777409025 | 12.22° C | 45% | 1013.7 hPa | 0 mm | - | 490 W/m² | - |
| 1777408722 | 13.33° C | 44% | 1013.7 hPa | 0 mm | - | 510 W/m² | - |
| 1777408419 | 12.78° C | 44% | 1013.8 hPa | 0 mm | - | 530 W/m² | - |
| 1777408119 | 12.22° C | 47% | 1013.6 hPa | 0 mm | - | 547 W/m² | - |
| 1777407814 | 12.22° C | 46% | 1013.5 hPa | 0 mm | - | 557 W/m² | - |
| 1777407511 | 12.78° C | 46% | 1013.7 hPa | 0 mm | - | 566 W/m² | - |
| 1777407211 | 12.22° C | 47% | 1013.8 hPa | 0 mm | - | 573 W/m² | - |
| 1777406906 | 12.22° C | 47% | 1013.8 hPa | 0 mm | - | 577 W/m² | - |
| 1777406601 | 12.22° C | 47% | 1013.8 hPa | 0 mm | - | 589 W/m² | - |
| 1777406297 | 12.22° C | 49% | 1013.7 hPa | 0 mm | - | 621 W/m² | - |
| 1777405996 | 12.22° C | 48% | 1013.5 hPa | 0 mm | - | 637 W/m² | - |
| 1777405693 | 12.22° C | 49% | 1013.7 hPa | 0 mm | - | 620 W/m² | - |
| 1777405390 | 12.78° C | 49% | 1013.8 hPa | 0 mm | - | 616 W/m² | - |
| 1777405087 | 12.78° C | 52% | 1013.6 hPa | 0 mm | - | 622 W/m² | - |
| 1777404786 | 12.22° C | 50% | 1013.7 hPa | 0 mm | - | 627 W/m² | - |
| 1777404483 | 12.22° C | 47% | 1013.6 hPa | 0 mm | - | 635 W/m² | - |
| 1777404179 | 12.22° C | 48% | 1013.3 hPa | 0 mm | - | 635 W/m² | - |
| 1777403875 | 11.67° C | 50% | 1013.5 hPa | 0 mm | - | 641 W/m² | - |
| 1777403570 | 11.67° C | 48% | 1013.5 hPa | 0 mm | - | 647 W/m² | - |
| 1777403270 | 11.67° C | 52% | 1013.6 hPa | 0 mm | - | 654 W/m² | - |
| 1777402969 | 11.67° C | 50% | 1013.3 hPa | 0 mm | - | 660 W/m² | - |
| 1777402665 | 11.67° C | 50% | 1013.5 hPa | 0 mm | - | 665 W/m² | - |
| 1777402364 | 11.67° C | 51% | 1013.3 hPa | 0 mm | - | 670 W/m² | - |
| 1777402063 | 12.22° C | 52% | 1013.2 hPa | 0 mm | - | 657 W/m² | - |
| 1777401759 | 11.67° C | 49% | 1013.2 hPa | 0 mm | - | 708 W/m² | - |
* Rain latest hour (hover to see other rain measurements)
** Current wind speed in m/s (hover to see current wind gust speed)